All Stations Radar Satellite Rainfall Station Map Enhanced Site
Observations: Wind Gusts Humidity Temperature    
Forecasts: Wind Gusts Humidity Temperature    

Valley Center (907, 908, 909, 1030, 6926) Station Data (Station Map)

Red Flag Warning: No
Fire Weather Zone: 250
SDGE Region: North East
Lat/Lon: 33.236/-117.001

Observations

Time (PDT)Wind Spd/GustTempRHFuel Moisture
4/20 1:50pmWNW 5 G 1376°46%-
4/20 1:40pmWSW 5 G 1076°47%-
4/20 1:30pmWNW 6 G 1274°50%-
4/20 1:20pmWNW 5 G 1074°50%-
4/20 1:10pmWNW 6 G 1174°50%-
4/20 1:00pmWNW 6 G 1174°50%-
4/20 12:50pmWNW 7 G 1274°50%-
4/20 12:40pmNW 7 G 1375°47%-
4/20 12:30pmNW 7 G 1275°46%-
4/20 12:20pmNW 5 G 1275°46%-
4/20 12:10pmNW 6 G 1175°46%-
4/20 12:00pmWNW 6 G 1175°45%-
4/20 11:50amWNW 4 G 976°44%-
4/20 11:40amWSW 4 G 875°46%-
4/20 11:30amW 4 G 874°46%-
4/20 11:20amWNW 4 G 974°45%-
4/20 11:10amWNW 4 G 973°47%-
4/20 11:00amWNW 4 G 973°46%-
4/20 10:50amW 2 G 673°48%-
4/20 10:40amW 2 G 672°50%-
4/20 10:30amWNW 3 G 670°53%-
4/20 10:20amWNW 3 G 770°54%-
4/20 10:10amW 4 G 770°55%-
4/20 10:00amWNW 3 G 669°56%-
4/20 9:50amW 3 G 569°57%-
4/20 9:40amS 1 G 469°56%-
4/20 9:30amSSW 1 G 368°59%-
4/20 9:20amWSW 1 G 466°62%-
4/20 9:10amWNW 3 G 665°63%-
4/20 9:00amWSW 2 G 565°63%-
4/20 8:50amWSW 2 G 465°64%-
4/20 8:40amSSW 1 G 365°65%-
4/20 8:30amW 1 G 263°68%-
4/20 8:20amWNW 1 G 263°68%-
4/20 8:00amESE 1 G 160°96%-
4/20 7:50amSSE 1 G 158°100%-
4/20 7:40amSSE 1 G 257°100%-
4/20 7:30amESE 1 G 257°100%-
4/20 7:20amN 1 G 154°100%-
4/20 7:10amN 1 G 253°100%-
4/20 7:00amENE 1 G 153°100%-
4/20 6:50amENE 1 G 151°100%-
4/20 6:40amENE 1 G 251°100%-
4/20 6:30amENE 1 G 251°100%-
4/20 6:20amNNE 1 G 150°100%-
4/20 6:10amNE 1 G 250°100%-
4/20 6:00amENE 1 G 250°100%-
4/20 5:50amENE 1 G 249°100%-
4/20 5:40amENE 1 G 149°100%-
4/20 5:30amE 1 G 349°100%-
4/20 5:20amN 1 G 149°100%-
4/20 5:10amENE 1 G 149°100%-
4/20 5:00amN 1 G 149°100%-
4/20 4:50amNNE 1 G 150°100%-
4/20 4:40amNNE 1 G 249°100%-
4/20 4:30amNE 1 G 250°100%-
4/20 4:20amE 1 G 149°100%-
4/20 4:10amNNE 1 G 250°100%-
4/20 4:00amNE 1 G 250°100%-
4/20 3:50amSE 1 G 150°100%-
4/20 3:40amNNW 1 G 452°100%-
4/20 3:30amN 2 G 351°100%-
4/20 3:20amWNW 1 G 252°100%-
4/20 3:10amW 1 G 252°100%-
4/20 3:00amN 1 G 252°100%-
4/20 2:50amNE 1 G 252°100%-
4/20 2:40amENE 1 G 152°100%-
4/20 2:30amESE 1 G 152°100%-
4/20 2:20amE 1 G 152°100%-
4/20 2:10amE 1 G 352°100%-
4/20 2:00amESE 1 G 352°100%-
4/20 1:50amESE 2 G 352°100%-
4/20 1:40amESE 1 G 352°100%-
4/20 1:30amESE 1 G 352°100%-
4/20 1:20amESE 1 G 153°100%-
4/20 1:10amNNW 2 G 553°100%-
4/20 1:00amWNW 4 G 853°100%-
4/20 12:50amWNW 3 G 754°100%-
4/20 12:40amN 1 G 253°100%-
4/20 12:30amE 1 G 154°100%-
4/20 12:20amE 1 G 154°100%-
4/20 12:10amSE 1 G 154°100%-
4/20 12:00amNE 1 G 154°100%-
4/19 11:50pmNNE 1 G 154°100%-
4/19 11:40pmNE 1 G 153°100%-
4/19 11:30pmNE 1 G 253°100%-
4/19 11:20pmNNE 1 G 353°100%-
4/19 11:10pmN 1 G 154°100%-
4/19 11:00pmNE 1 G 154°100%-
4/19 10:50pmNE 1 G 154°100%-
4/19 10:40pmENE 1 G 154°100%-
4/19 10:30pmSE 1 G 154°100%-
4/19 10:20pmSE 1 G 155°100%-
4/19 10:10pmSE 1 G 155°100%-
4/19 10:00pmSSE 1 G 155°100%-
4/19 9:50pmNW 1 G 156°100%-
4/19 9:40pmNNW 1 G 156°100%-
4/19 9:30pmNW 1 G 256°100%-
4/19 9:20pmNW 2 G 356°100%-
4/19 9:10pmNW 1 G 257°100%-
4/19 9:00pmWNW 2 G 357°100%-
4/19 8:50pmWNW 1 G 258°100%-
4/19 8:40pmNW 1 G 358°100%-
4/19 8:30pmNW 1 G 258°100%-
4/19 8:20pmW 1 G 258°100%-
4/19 8:10pmSW 1 G 158°91%-
4/19 8:00pmN 1 G 159°86%-
4/19 7:50pmNW 1 G 359°85%-
4/19 7:40pmWNW 2 G 459°83%-
4/19 7:30pmNW 3 G 760°79%-
4/19 7:20pmWNW 4 G 660°75%-
4/19 7:10pmWNW 4 G 861°72%-
4/19 7:00pmNW 4 G 962°69%-
4/19 6:50pmNW 5 G 963°68%-
4/19 6:40pmNW 5 G 964°65%-
4/19 6:30pmWNW 4 G 866°63%-
4/19 6:20pmNW 5 G 966°62%-
4/19 6:10pmWNW 5 G 867°61%-
4/19 6:00pmWNW 6 G 967°61%-
4/19 5:50pmNW 5 G 968°60%-
4/19 5:40pmWNW 5 G 968°60%-
4/19 5:30pmWNW 5 G 868°59%-
4/19 5:20pmWNW 5 G 1069°59%-
4/19 5:10pmNW 6 G 1069°58%-
4/19 5:00pmWNW 6 G 1070°56%-
4/19 4:50pmWNW 6 G 1070°54%-
4/19 4:40pmWNW 6 G 971°53%-
4/19 4:30pmWNW 5 G 1171°52%-
4/19 4:20pmWNW 5 G 971°52%-
4/19 4:10pmNW 6 G 1171°50%-
4/19 4:00pmW 6 G 1172°49%-
4/19 3:50pmNW 3 G 772°49%-
4/19 3:40pmWNW 6 G 1271°50%-
4/19 3:30pmWSW 4 G 1073°47%-
4/19 3:20pmNW 4 G 772°48%-
4/19 3:10pmW 4 G 971°49%-
4/19 3:00pmWNW 3 G 972°49%-
4/19 2:50pmWSW 4 G 1071°50%-
4/19 2:40pmW 5 G 971°51%-
4/19 2:30pmWNW 5 G 970°52%-
4/19 2:20pmWNW 6 G 1270°52%-
4/19 2:10pmW 5 G 1269°54%-
4/19 2:00pmWNW 6 G 1069°53%-
4/19 1:50pmWNW 5 G 870°52%-
4/19 1:40pmWNW 5 G 1170°52%-
4/19 1:30pmWNW 6 G 1270°52%-
4/19 1:20pmNW 7 G 1469°54%-
4/19 1:10pmWNW 8 G 1569°54%-
4/19 1:00pmWNW 7 G 1570°52%-
4/19 12:50pmW 7 G 1471°49%-
4/19 12:40pmWNW 4 G 971°48%-
4/19 12:30pmWNW 4 G 971°48%-
4/19 12:20pmNW 5 G 970°50%-
4/19 12:10pmNW 5 G 1270°50%-
4/19 12:00pmW 4 G 1069°51%-
4/19 11:50amWNW 3 G 970°49%-
4/19 11:40amW 2 G 669°48%-
4/19 11:30amWSW 2 G 668°52%-
4/19 11:20amW 4 G 768°53%-
4/19 11:10amWSW 1 G 467°55%-
4/19 11:00amW 3 G 966°56%-
4/19 10:50amSW 2 G 666°56%-
4/19 10:40amWNW 3 G 764°60%-
4/19 10:30amW 3 G 863°63%-
4/19 10:20amNW 3 G 763°64%-
4/19 10:10amW 2 G 663°64%-
4/19 10:00amSSW 2 G 662°66%-
4/19 9:50amSE 2 G 561°70%-
4/19 9:40amSSE 2 G 462°69%-
4/19 9:30amS 2 G 661°73%-
4/19 9:20amW 1 G 460°77%-
4/19 9:10amNW 1 G 458°98%-
4/19 9:00amNW 2 G 657°100%-
4/19 8:50amWNW 3 G 857°100%-
4/19 8:40amW 2 G 557°100%-
4/19 8:30amW 2 G 456°100%-
4/19 8:20amW 2 G 556°100%-
4/19 8:10amWSW 2 G 556°100%-
4/19 8:00amWSW 1 G 356°100%-
4/19 7:50amSW 1 G 456°100%-
4/19 7:40amSSE 1 G 355°100%-
4/19 7:30amSE 1 G 153°100%-
4/19 7:20amSSE 1 G 253°100%-
4/19 7:10amW 1 G 252°100%-
4/19 7:00amNE 1 G 151°100%-
4/19 6:50amNNE 1 G 250°100%-
4/19 6:40amNNW 1 G 350°100%-
4/19 6:30amNW 1 G 351°100%-
4/19 6:20amNNW 1 G 149°100%-
4/19 6:10amNNW 1 G 250°100%-
4/19 6:00amN 1 G 250°100%-